[[{"header":{"parameterUnit":"m.s-1","parameterCategory":1,"la1":30.2992,"la2":30.254,"lo1":-89.0895,"lo2":-89.0443,"dy":0.0025,"dx":0.0025,"nx":19,"ny":19,"refTime":"2026-03-20T21:00:00:Z","depth":0,"parameterNumber":2,"parameterNumberName":"U-component_of_WINDS"},"data":[0,0,0,3.6682,3.6684,3.6755,3.6755,3.6864,3.6866,0,0,0,0,0,0,0,0,0,0,0,3.6674,3.6675,3.6682,3.6684,3.6755,3.6755,3.6864,3.6866,0,0,0,0,0,0,0,0,0,0,0,3.6674,3.6675,3.6676,3.6685,3.6755,3.6755,3.6864,3.6804,0,0,0,0,0,0,0,0,0,0,3.6731,3.6737,3.6675,3.6677,3.6685,3.6755,3.6755,3.68,3.6807,3.6841,0,3.6875,0,3.6872,3.6874,3.6875,0,0,0,3.6675,3.6731,3.6739,3.6677,3.6686,3.6755,3.672,3.6804,3.6812,3.685,3.6876,3.688,3.6874,3.6875,3.6876,3.7099,3.7101,0,0,3.6671,3.6694,3.6733,3.6744,3.6736,3.6718,3.6723,3.6809,3.6839,3.6877,3.6882,3.6876,3.6876,3.6877,3.7098,3.71,0,0,0,3.6666,3.6692,3.6696,3.6741,3.6752,3.672,3.6726,3.6835,3.6834,3.6883,3.6877,3.6877,3.6878,3.7096,3.7099,3.7192,0,0,0,3.6663,3.6689,3.6695,3.671,3.6751,3.6795,3.675,3.6828,3.6837,3.6877,3.6877,3.688,3.7095,3.7098,3.7186,3.7233,0,0,0,3.6665,3.6689,3.6703,3.6711,3.6742,3.6793,3.6797,3.683,3.6834,3.6875,3.688,3.7094,3.7097,3.7181,3.7223,3.7295,0,0,0,3.6674,3.6789,3.6705,3.6831,3.6742,3.6851,3.6796,3.6876,3.6923,3.6877,3.7095,3.7098,3.7179,3.7218,3.7289,3.7357,3.7388,0,0,3.6832,3.6809,3.688,3.6808,3.6937,3.6838,3.6981,3.7002,3.6986,3.7062,3.7067,3.7188,3.7223,3.7294,3.7561,3.7586,0,0,0,3.6938,3.6989,3.7019,3.7063,3.7081,3.7099,3.7096,3.7103,3.7166,3.703,3.7234,3.7254,3.7295,3.7326,3.7347,3.7378,3.7115,3.7114,3.7114,3.7194,3.7164,3.7279,3.7257,3.7301,3.7294,3.7326,3.7334,3.7294,3.7343,3.7364,3.753,3.7568,3.7583,3.7616,3.74,3.7401,3.7401,3.7401,3.7419,3.7485,3.7426,3.7515,3.7483,3.7558,3.7554,3.7523,3.7586,3.7513,3.7547,3.7466,3.7612,3.7639,3.7408,3.7407,3.7406,3.7406,3.7405,3.7581,3.7607,3.7613,3.767,3.7718,3.7692,3.7754,3.7723,3.7695,3.7729,3.7745,3.7743,3.7734,3.7739,3.774,3.774,3.7741,3.7741,3.7742,3.7745,3.7749,3.7804,3.783,3.7851,3.7876,3.7868,3.7889,3.7903,3.7875,3.7875,3.7827,3.7633,3.7582,3.775,3.7749,3.7748,3.7747,3.7746,3.7979,3.792,3.8007,3.8028,3.8053,3.8099,3.8059,3.8102,3.8114,3.8145,3.8089,3.7952,3.7926,3.7909,3.7867,3.8098,3.8098,3.8098,3.8098,3.8113,3.8097,3.8175,3.821,3.8242,3.8212,3.8307,3.8301,3.8285,3.829,3.8253,3.8195,3.8179,3.8163,3.814,3.81,3.8386,3.8386,3.8386,3.8253,3.8237,3.8325,3.8307,3.8323,3.8337,3.8424,3.8465,3.8436,3.8397,3.8292,3.828,3.8187,3.8159,3.8116,3.8082,3.8007,0,0]},{"header":{"parameterUnit":"m.s-1","parameterCategory":1,"la1":30.2992,"la2":30.254,"lo1":-89.0895,"lo2":-89.0443,"dy":0.0025,"dx":0.0025,"nx":19,"ny":19,"refTime":"2026-03-20T21:00:00:Z","depth":0,"parameterNumber":3,"parameterNumberName":"V-component_of_WINDS"},"data":[0,0,0,3.134,3.1343,3.1493,3.1494,3.1675,3.1677,0,0,0,0,0,0,0,0,0,0,0,3.1292,3.1293,3.1339,3.1343,3.1493,3.1494,3.1675,3.1677,0,0,0,0,0,0,0,0,0,0,0,3.1291,3.1293,3.1294,3.1344,3.1493,3.1494,3.1675,3.1564,0,0,0,0,0,0,0,0,0,0,3.142,3.1374,3.1292,3.1294,3.1345,3.1493,3.1494,3.1559,3.1571,3.1604,0,3.1634,0,3.1658,3.1689,3.1689,0,0,0,3.1345,3.1363,3.1407,3.1294,3.1346,3.1493,3.1426,3.1566,3.158,3.1619,3.1637,3.1644,3.1661,3.169,3.1691,3.1875,3.1876,0,0,3.1337,3.1317,3.1398,3.1416,3.1395,3.1421,3.1431,3.1574,3.1591,3.1637,3.1648,3.1664,3.1691,3.1692,3.1874,3.1875,0,0,0,3.1312,3.1311,3.1351,3.1408,3.1436,3.1426,3.1437,3.1585,3.1599,3.165,3.1667,3.1692,3.1694,3.1874,3.1875,3.1893,0,0,0,3.1307,3.1296,3.1347,3.1337,3.1433,3.1513,3.1443,3.159,3.1606,3.1666,3.1692,3.1696,3.1873,3.1874,3.1891,3.1905,0,0,0,3.1283,3.1293,3.1314,3.1335,3.1399,3.1511,3.1535,3.1594,3.1616,3.1689,3.1696,3.1872,3.1874,3.1889,3.1902,3.1946,0,0,0,3.1252,3.1329,3.1314,3.1407,3.1398,3.1522,3.1534,3.1627,3.1692,3.1693,3.1873,3.1875,3.1888,3.19,3.1944,3.1979,3.1993,0,0,3.1338,3.1339,3.1395,3.1386,3.1508,3.1501,3.1625,3.1703,3.1727,3.1823,3.1828,3.1892,3.1901,3.1946,3.2077,3.2087,0,0,0,3.1415,3.1455,3.1491,3.1553,3.1615,3.1667,3.1729,3.1757,3.184,3.1774,3.1921,3.1927,3.1954,3.1972,3.1981,3.2004,3.1882,3.1882,3.1882,3.1508,3.1536,3.1629,3.1673,3.1732,3.1793,3.1842,3.189,3.1901,3.1935,3.1964,3.204,3.206,3.2067,3.2091,3.1985,3.1986,3.1986,3.1986,3.1636,3.1695,3.1706,3.1801,3.1827,3.1906,3.1966,3.197,3.2045,3.2021,3.2046,3.2017,3.2078,3.2099,3.1987,3.1987,3.1987,3.1987,3.1987,3.1699,3.1732,3.1766,3.1855,3.192,3.1962,3.2033,3.2055,3.2076,3.2101,3.2131,3.2131,3.2132,3.2114,3.2114,3.2114,3.2115,3.2115,3.2115,3.1751,3.1788,3.1847,3.1917,3.1957,3.2013,3.2073,3.2113,3.2162,3.2172,3.2172,3.2177,3.208,3.2053,3.2119,3.2118,3.2118,3.2118,3.2117,3.1868,3.1845,3.1935,3.1976,3.2058,3.2119,3.2146,3.2224,3.226,3.2293,3.2293,3.2217,3.2219,3.2212,3.2191,3.2288,3.2288,3.2288,3.2288,3.1921,3.1924,3.2019,3.2082,3.2146,3.2179,3.2276,3.2321,3.2364,3.2387,3.2376,3.235,3.2342,3.2348,3.2338,3.2318,3.2446,3.2446,3.2447,3.1993,3.2003,3.2083,3.2126,3.2191,3.2245,3.2336,3.2405,3.2449,3.2453,3.2405,3.2398,3.2356,3.2341,3.2344,3.2329,3.2293,0,0]}]]